Regional Weather Roundup
Issued by NWS Cleveland, OH

Home | Current Version | Previous Version | Text Only | Print | Product List | Glossary Off
Versions: 1 2 3 4 5 6 7 8 9 10 11 12 13 14 15 16 17 18 19 20 21 22 23 24 25 26 27 28 29 30 31 32 33 34 35 36 37 38 39 40 41 42 43 44 45 46 47 48 49 50

000
ASUS41 KCLE 241010
RWRCLE
OHIO REGIONAL WEATHER ROUNDUP
NATIONAL WEATHER SERVICE WILMINGTON, OH
600 AM EDT FRI MAR 24 2017

NOTE: "FAIR" INDICATES FEW OR NO CLOUDS BELOW 12,000 FEET WITH NO
SIGNIFICANT WEATHER AND/OR OBSTRUCTIONS TO VISIBILITY.

OHZ001>008-015>018-024>027-034-035-043-044-241100-
   NORTHWEST OHIO

CITY           SKY/WX    TMP DP  RH WIND       PRES   REMARKS
DEFIANCE       FAIR      49  37  63 S12       30.04F
FINDLAY        FAIR      50  37  61 S15       30.06F
TOLEDO EXPRESS FAIR      43  38  82 S6        30.04F
TOLEDO EXEC    FAIR      47  37  68 S13       30.05F
LIMA           FAIR      51  38  60 S17       30.08F
$$

OHZ009>014-019>023-028>033-038-089-241100-
   NORTHEAST OHIO

CITY           SKY/WX    TMP DP  RH WIND       PRES   REMARKS
CLE-HOPKINS    CLOUDY    51  34  52 S17G30    30.11F
CLE-LAKEFRONT  LGT RAIN  47  39  74 S18G30    30.05F
CUY CO. ARPT   NOT AVBL
LORAIN-ELYRIA  CLOUDY    43  32  65 S20       30.09F
ASHTABULA      CLOUDY    42  34  73 S12       30.11F
AKRON-CANTON   LGT RAIN  41  35  79 S13       30.18R
WOOSTER        CLOUDY    40  34  79 SE8       30.17S
MANSFIELD      CLOUDY    47  32  56 S12       30.13S
YOUNGSTOWN     LGT RAIN  40  34  79 S12       30.15F
$$

OHZ042-051>053-060>062-070>072-077>081-241100-
  SOUTHWEST OHIO

CITY           SKY/WX    TMP DP  RH WIND       PRES   REMARKS
CINC-COVINGTON FAIR      52  40  63 S12       30.13R
CINC-LUNKEN    FAIR      52  41  66 S10       30.16R
HAMILTON       FAIR      54  41  61 VRB5      30.14S
DAYTON         CLOUDY    54  39  57 S17G24    30.12S
WRIGHT-PAT AFB CLOUDY    55  39  56 S10       30.13S
DAYTON GENERAL FAIR      53  40  61 S13       30.13R
WILMINGTON     FAIR      51  40  65 S10       30.16R
$$

OHZ036-037-039>041-045>050-054>059-063>069-073>076-082>088-241100-
  CENTRAL AND SOUTHEAST OHIO

CITY           SKY/WX    TMP DP  RH WIND       PRES   REMARKS
COLUMBUS       CLOUDY    52  33  48 S5        30.17R
OSU AIRPORT    MOCLDY    49  31  49 S9        30.16R
BOLTON FIELD   MOCLDY    46  32  58 S7        30.17R
RICKENBACK AFB MOCLDY    47  32  55 S8        30.17R
NEWARK         MOCLDY    47  31  53 CALM      30.17R
MARION         MOCLDY    50  33  52 S15       30.13S
LANCASTER      CLOUDY    54  33  45 S7        30.18R
ZANESVILLE     MOCLDY    48  30  49 S6        30.19R
NEW PHILLY     CLOUDY    42  38  85 SE5       30.20S
$$




USA.gov is the U.S. government's official web portal to all federal, state and local government web resources and services.